[[{"header":{"parameterUnit":"m.s-1","parameterCategory":1,"la1":30.2991,"la2":30.254,"lo1":-89.0895,"lo2":-89.0444,"dy":0.0017,"dx":0.0017,"nx":28,"ny":28,"refTime":"2023-04-25T21:00:00:Z","depth":0,"parameterNumber":2,"parameterNumberName":"U-component_of_WINDS"},"data":[0,0,0,0,0,0,0,0,0,0,0,0,0,0,0,0,0,0,0,0,0,0,0,0,0,0,0,0,0,0,0,0,0,0,0,0,0,0,0,0,0,0,0,0,0,0,0,0,0,0,0,0,0,0,0,0,0,0,-2.8772,-2.8773,0,-2.8843,-2.8844,-2.8845,-2.8857,-2.8856,-2.8855,-2.8855,-2.8925,-2.8927,-2.8929,0,0,0,0,0,0,0,0,0,0,0,0,0,-2.8644,-2.8646,-2.8772,-2.8773,-2.8774,-2.8843,-2.8844,-2.8845,-2.8857,-2.8856,-2.8855,-2.8854,-2.8924,-2.8927,-2.893,0,0,0,0,0,0,0,0,0,0,0,0,0,-2.8706,-2.8647,-2.8772,-2.8788,-2.879,-2.8843,-2.8844,-2.8846,-2.8857,-2.8856,-2.8855,-2.8854,-2.8923,-2.8926,-2.893,-2.8971,0,0,-2.8941,-2.8943,0,0,0,0,0,0,0,0,-2.8702,-2.871,-2.8785,-2.8787,-2.8789,-2.884,-2.8825,-2.8888,-2.8857,-2.8831,-2.8855,-2.8854,-2.8897,-2.8903,-2.8918,-2.8974,-2.8977,-2.8942,-2.8944,-2.8945,-2.8946,0,0,0,0,0,0,0,-2.8698,-2.8707,-2.88,-2.8786,-2.8789,-2.8791,-2.8799,-2.8837,-2.8868,-2.8834,-2.8835,-2.8843,-2.8898,-2.8915,-2.892,-2.8978,-2.8941,-2.8945,-2.8947,-2.8948,-2.9072,-2.9073,0,0,0,0,0,0,-2.8691,-2.8704,-2.8798,-2.8802,-2.8743,-2.8794,-2.8803,-2.8825,-2.8868,-2.8874,-2.8844,-2.8843,-2.8909,-2.8916,-2.8922,-2.8973,-2.8945,-2.8949,-2.8951,-2.9071,-2.9073,-2.9074,0,0,0,0,0,0,-2.8688,-2.8699,-2.8795,-2.8753,-2.8766,-2.8797,-2.8822,-2.8827,-2.8843,-2.8876,-2.8881,-2.8855,-2.8908,-2.8917,-2.8959,-2.8976,-2.895,-2.8954,-2.907,-2.9072,-2.9073,-2.9075,0,0,0,0,0,0,-2.8684,-2.8698,-2.8714,-2.8754,-2.8768,-2.8831,-2.8823,-2.8829,-2.885,-2.885,-2.8888,-2.8893,-2.8908,-2.8954,-2.8963,-2.898,-2.8957,-2.9068,-2.9071,-2.9073,-2.9073,-2.9076,-2.9079,0,0,0,0,0,-2.868,-2.8711,-2.8715,-2.8726,-2.8789,-2.8832,-2.884,-2.8858,-2.8851,-2.8867,-2.8889,-2.8892,-2.8973,-2.8958,-2.8968,-2.8987,-2.9067,-2.907,-2.9072,-2.9072,-2.9075,-2.9078,0,0,0,0,0,0,-2.8672,-2.8717,-2.8721,-2.8767,-2.8796,-2.8834,-2.8855,-2.8861,-2.8892,-2.8891,-2.8911,-2.8919,-2.896,-2.8978,-2.8961,-2.9029,-2.902,-2.9024,-2.9016,-2.9019,-2.9022,-2.9016,-2.896,0,0,0,0,0,-2.8675,-2.8707,-2.8745,-2.8781,-2.8795,-2.8823,-2.8842,-2.8854,-2.8884,-2.8896,-2.892,-2.8949,-2.8981,-2.9001,-2.9033,-2.9077,-2.9085,-2.9095,-2.9097,-2.9099,-2.9103,-2.9127,-2.9132,-2.9082,-2.9082,-2.9082,0,0,-2.8683,-2.8711,-2.873,-2.878,-2.8804,-2.8836,-2.8833,-2.8867,-2.889,-2.8901,-2.8942,-2.8961,-2.8994,-2.9038,-2.9058,-2.9054,-2.9119,-2.9103,-2.9104,-2.9106,-2.913,-2.9135,-2.9139,-2.9083,-2.9083,-2.9083,0,0,-2.8712,-2.8738,-2.877,-2.8795,-2.8832,-2.885,-2.8858,-2.8896,-2.8909,-2.8951,-2.896,-2.8988,-2.9043,-2.9067,-2.9086,-2.9126,-2.913,-2.9136,-2.9149,-2.9173,-2.9177,-2.918,-2.9194,-2.9198,-2.9139,-2.9139,-2.9139,0,-2.8716,-2.8765,-2.8786,-2.882,-2.8842,-2.8855,-2.8888,-2.891,-2.8955,-2.8969,-2.8965,-2.9034,-2.9058,-2.9106,-2.9116,-2.9132,-2.9141,-2.9131,-2.9175,-2.9178,-2.9182,-2.9195,-2.92,-2.914,-2.914,-2.914,-2.914,0,-2.8768,-2.8803,-2.8825,-2.8869,-2.8893,-2.8926,-2.8952,-2.8974,-2.8984,-2.9003,-2.9045,-2.9075,-2.9112,-2.9125,-2.9134,-2.9175,-2.9171,-2.9171,-2.9161,-2.9187,-2.9199,-2.9205,-2.914,-2.914,-2.914,-2.914,0,0,-2.8792,-2.8849,-2.8857,-2.8877,-2.8919,-2.8946,-2.898,-2.9018,-2.9036,-2.9067,-2.9095,-2.9143,-2.9142,-2.9164,-2.9177,-2.9198,-2.9227,-2.9194,-2.9195,-2.9198,-2.9273,-2.9272,-2.9278,-2.9231,-2.9232,-2.9233,-2.927,0,-2.8826,-2.8888,-2.8908,-2.8959,-2.8991,-2.9005,-2.9034,-2.9063,-2.9082,-2.9111,-2.9132,-2.9165,-2.9162,-2.9176,-2.9197,-2.9219,-2.9242,-2.9217,-2.9257,-2.9258,-2.9246,-2.9285,-2.9284,-2.9317,-2.9275,-2.9276,-2.9277,0,-2.8873,-2.8905,-2.896,-2.8999,-2.9013,-2.9039,-2.9076,-2.9104,-2.9137,-2.915,-2.9175,-2.9187,-2.9222,-2.9212,-2.9262,-2.9244,-2.9262,-2.9275,-2.9277,-2.928,-2.9267,-2.9287,-2.9328,-2.9333,-2.9285,-2.9284,-2.9284,0,-2.8883,-2.8941,-2.8981,-2.8999,-2.9045,-2.9064,-2.9084,-2.9116,-2.9138,-2.917,-2.9184,-2.922,-2.9239,-2.9266,-2.9287,-2.9278,-2.9334,-2.9326,-2.9344,-2.9344,-2.9353,-2.9352,-2.9397,-2.9368,-2.9368,-2.9368,-2.9367,0,-2.8918,-2.895,-2.8987,-2.9011,-2.9048,-2.9072,-2.9108,-2.9129,-2.9158,-2.9186,-2.9201,-2.9227,-2.9253,-2.9283,-2.93,-2.9337,-2.9346,-2.9356,-2.936,-2.9354,-2.9353,-2.9365,-2.9362,-2.9369,-2.9369,-2.9368,-2.9368,0,-2.8935,-2.8961,-2.9005,-2.9047,-2.9058,-2.9083,-2.9119,-2.9143,-2.9163,-2.9199,-2.9209,-2.924,-2.9276,-2.93,-2.9346,-2.9357,-2.9398,-2.9402,-2.9386,-2.9388,-2.9404,-2.9402,-2.9457,-2.9465,-2.9432,-2.9432,-2.9432,0,-2.8954,-2.898,-2.9024,-2.9045,-2.9066,-2.9098,-2.9121,-2.9146,-2.9169,-2.9209,-2.9228,-2.9266,-2.9296,-2.9353,-2.9379,-2.9414,-2.9418,-2.9435,-2.9423,-2.9417,-2.9417,-2.9415,-2.9417,-2.9436,-2.9436,-2.9437,-2.9437,0,-2.8985,-2.8997,-2.903,-2.9067,-2.9094,-2.9125,-2.9155,-2.9171,-2.9201,-2.9226,-2.9264,-2.9288,-2.9335,-2.9371,-2.9409,-2.9429,-2.9438,-2.9441,-2.9447,-2.944,-2.943,-2.9434,-2.939,-2.9439,-2.9438,-2.9438,-2.9438,-2.9438,-2.9003,-2.9027,-2.9062,-2.9098,-2.9124,-2.9152,-2.9177,-2.9201,-2.9233,-2.9274,-2.9287,-2.9326,-2.9359,-2.9411,-2.9432,-2.9462,-2.9461,-2.9469,-2.9471,-2.9473,-2.9472,-2.9427,-2.947,-2.947,-2.947,-2.947,-2.947,0,-2.9034,-2.9058,-2.9091,-2.9134,-2.9162,-2.917,-2.9204,-2.9227,-2.9261,-2.9292,-2.9323,-2.9366,-2.9402,-2.9432,-2.9469,-2.9487,-2.9492,-2.9496,-2.9494,-2.9498,-2.9472,-2.9463,-2.9491,-2.9491,-2.9491,-2.9491,-2.9491,-2.9491,-2.9053,-2.9093,-2.911,-2.9163,-2.9186,-2.9225,-2.9244,-2.927,-2.9295,-2.9343,-2.9373,-2.9393,-2.9424,-2.9464,-2.9497,-2.9505,-2.9517,-2.952,-2.9528,-2.9503,-2.95,-2.9498,-2.9489,-2.9522,-2.9522,-2.9552,-2.9552,-2.9552]},{"header":{"parameterUnit":"m.s-1","parameterCategory":1,"la1":30.2991,"la2":30.254,"lo1":-89.0895,"lo2":-89.0444,"dy":0.0017,"dx":0.0017,"nx":28,"ny":28,"refTime":"2023-04-25T21:00:00:Z","depth":0,"parameterNumber":3,"parameterNumberName":"V-component_of_WINDS"},"data":[0,0,0,0,0,0,0,0,0,0,0,0,0,0,0,0,0,0,0,0,0,0,0,0,0,0,0,0,0,0,0,0,0,0,0,0,0,0,0,0,0,0,0,0,0,0,0,0,0,0,0,0,0,0,0,0,0,0,3.7073,3.7072,0,3.7036,3.7036,3.7036,3.7008,3.7008,3.7007,3.7007,3.6965,3.6964,3.6963,0,0,0,0,0,0,0,0,0,0,0,0,0,3.7116,3.7115,3.7073,3.7072,3.7072,3.7036,3.7036,3.7035,3.7008,3.7008,3.7007,3.7007,3.6965,3.6964,3.6963,0,0,0,0,0,0,0,0,0,0,0,0,0,3.709,3.7115,3.7073,3.7054,3.7052,3.7037,3.7036,3.7035,3.7008,3.7008,3.7007,3.7007,3.6966,3.6964,3.6963,3.6962,0,0,3.6959,3.6958,0,0,0,0,0,0,0,0,3.7092,3.7088,3.7057,3.7055,3.7053,3.7026,3.7036,3.7011,3.7008,3.7025,3.7007,3.7007,3.6986,3.6983,3.6976,3.696,3.6958,3.6959,3.6958,3.6958,3.6957,0,0,0,0,0,0,0,3.7093,3.709,3.7058,3.7057,3.7054,3.7047,3.7043,3.7031,3.7007,3.7023,3.7021,3.7017,3.6984,3.6978,3.6975,3.6958,3.6959,3.6958,3.6957,3.6956,3.6941,3.6942,0,0,0,0,0,0,3.7099,3.7092,3.7059,3.7057,3.7072,3.7046,3.7042,3.7035,3.7007,3.7003,3.7018,3.7016,3.698,3.6977,3.6974,3.6972,3.6958,3.6956,3.6955,3.6941,3.6941,3.6942,0,0,0,0,0,0,3.71,3.7096,3.7061,3.7074,3.7069,3.7046,3.7039,3.7035,3.7028,3.7003,3.6999,3.7016,3.698,3.6975,3.6966,3.697,3.6956,3.6954,3.694,3.6941,3.6942,3.6968,0,0,0,0,0,0,3.7101,3.7097,3.7096,3.7074,3.7068,3.7055,3.7039,3.7034,3.7027,3.7024,3.7,3.6996,3.6979,3.6968,3.6965,3.6968,3.6953,3.694,3.6941,3.6941,3.6967,3.697,3.6972,0,0,0,0,0,3.7103,3.7104,3.7096,3.7093,3.7068,3.7055,3.7052,3.7034,3.7027,3.7026,3.7011,3.6996,3.6971,3.6967,3.6963,3.6966,3.6939,3.694,3.6941,3.6966,3.6969,3.6972,0,0,0,0,0,0,3.7124,3.71,3.7092,3.7086,3.7073,3.7051,3.7049,3.7038,3.7025,3.7023,3.7,3.6995,3.6989,3.6976,3.6973,3.6965,3.6953,3.6953,3.6973,3.6976,3.6979,3.6982,3.6952,0,0,0,0,0,3.7129,3.7122,3.7101,3.7097,3.7092,3.7072,3.7065,3.7053,3.7038,3.7032,3.7016,3.7001,3.6989,3.6982,3.697,3.6965,3.696,3.6965,3.6968,3.697,3.6971,3.6969,3.6972,3.6945,3.6945,3.6945,0,0,3.7137,3.7123,3.712,3.7102,3.709,3.7083,3.7067,3.7059,3.7054,3.703,3.7021,3.7009,3.6991,3.6985,3.6981,3.6974,3.6978,3.6972,3.6974,3.6973,3.6971,3.6973,3.6976,3.6945,3.6945,3.6945,0,0,3.7149,3.7138,3.7135,3.7125,3.7109,3.7096,3.7095,3.7075,3.7067,3.7058,3.7041,3.7034,3.7014,3.7003,3.6994,3.7006,3.6992,3.7002,3.7016,3.7015,3.7017,3.7019,3.7024,3.7026,3.7002,3.7003,3.7003,0,3.7161,3.7151,3.7134,3.7129,3.7122,3.7103,3.71,3.7091,3.7071,3.7066,3.7059,3.7037,3.7023,3.7015,3.7018,3.7011,3.701,3.7004,3.7018,3.702,3.7021,3.7026,3.7028,3.7004,3.7004,3.7004,3.7003,0,3.7167,3.716,3.716,3.7144,3.7137,3.7133,3.7115,3.711,3.7099,3.7087,3.708,3.7063,3.7048,3.7046,3.7033,3.7036,3.7033,3.7023,3.701,3.7026,3.703,3.7031,3.7006,3.7005,3.7005,3.7005,0,0,3.7189,3.7167,3.7167,3.7161,3.7144,3.7138,3.7133,3.7121,3.7118,3.7105,3.7101,3.7087,3.7078,3.7069,3.7056,3.7055,3.7067,3.7045,3.7044,3.705,3.7071,3.708,3.7082,3.7059,3.7059,3.7059,3.7073,0,3.7199,3.7192,3.7178,3.7175,3.7169,3.7153,3.7149,3.7138,3.7127,3.712,3.7107,3.7098,3.7087,3.7081,3.708,3.7066,3.7071,3.7065,3.7055,3.7054,3.706,3.7084,3.7092,3.7106,3.7074,3.7075,3.7075,0,3.7209,3.72,3.7197,3.7183,3.718,3.7177,3.7166,3.716,3.7147,3.714,3.7131,3.7118,3.7113,3.7102,3.7095,3.7091,3.7086,3.7079,3.7079,3.7077,3.7066,3.7084,3.711,3.7113,3.7077,3.7077,3.7077,0,3.7227,3.7215,3.7212,3.7207,3.719,3.7188,3.7181,3.7168,3.7163,3.7153,3.715,3.7139,3.7133,3.7125,3.7109,3.7103,3.7104,3.7092,3.7098,3.7098,3.7098,3.7099,3.7125,3.7095,3.7095,3.7095,3.7095,0,3.7239,3.7238,3.722,3.7219,3.7218,3.7202,3.7201,3.7192,3.7181,3.7178,3.7162,3.7158,3.7138,3.7132,3.712,3.7117,3.7114,3.7108,3.7104,3.7109,3.711,3.7106,3.7105,3.7095,3.7095,3.7095,3.7095,0,3.7259,3.7247,3.7243,3.7229,3.7225,3.7225,3.7212,3.721,3.72,3.7195,3.7193,3.7176,3.7169,3.7153,3.714,3.7132,3.7133,3.7126,3.7138,3.7136,3.7144,3.7143,3.7168,3.7171,3.7138,3.7139,3.7139,0,3.7268,3.7267,3.7254,3.7251,3.7245,3.7241,3.7236,3.7222,3.7217,3.7205,3.7205,3.7197,3.719,3.7179,3.7165,3.7156,3.715,3.7159,3.7148,3.7154,3.7152,3.7152,3.7153,3.7162,3.7162,3.7163,3.7163,0,3.7285,3.728,3.7275,3.7269,3.7265,3.7258,3.7251,3.725,3.7233,3.723,3.7223,3.7218,3.7208,3.72,3.719,3.7181,3.717,3.7167,3.7168,3.7173,3.718,3.7178,3.7145,3.7166,3.7166,3.7165,3.7165,3.7165,3.73,3.73,3.7291,3.7287,3.7281,3.7275,3.7274,3.7265,3.726,3.7251,3.7243,3.7238,3.7228,3.7213,3.7206,3.7202,3.7195,3.7197,3.7197,3.7198,3.7201,3.7181,3.72,3.7199,3.7199,3.7199,3.7199,0,3.7317,3.7312,3.7308,3.7301,3.7298,3.7289,3.7282,3.728,3.7276,3.7268,3.7263,3.7257,3.7251,3.7238,3.7231,3.723,3.7225,3.7229,3.7229,3.7227,3.7206,3.7206,3.7233,3.7233,3.7233,3.7233,3.7233,3.7233,3.7326,3.7326,3.7321,3.7318,3.7312,3.7309,3.7306,3.7301,3.7295,3.729,3.7286,3.7278,3.7269,3.7261,3.7256,3.7252,3.725,3.7256,3.7251,3.7232,3.7228,3.7225,3.7226,3.7256,3.7256,3.7273,3.7273,3.7273]}]]